Weather History for Fryeburg, ME

Change the Weather History Date:

Saturday, August 31, 2013

  Actual Average Record
Temperature  
Mean Temperature 74 °F -  
Max Temperature 82 °F 76 °F 93 °F (2010)
Min Temperature 66 °F 47 °F 35 °F (2003)
Cooling Degree Days 8    
Growing Degree Days 24 (Base 50)    
Moisture  
Dew Point 69 °F    
Average Humidity 90    
Maximum Humidity 100    
Minimum Humidity 60    
Precipitation  
Precipitation 0.12 in - - ()
Sea Level Pressure  
Sea Level Pressure 29.80 in    
Wind  
Wind Speed 0 mph (SE)    
Max Wind Speed 4 mph    
Max Gust Speed -    
Visibility 7 miles    
Events Rain , Thunderstorm    
Averages and records for this station are not official NWS values.
T = Trace of Precipitation, MM = Missing Value Source: NWS Daily Summary

Daily Weather History Graph

Daily Weather History Graph

Search for Another Location

Airport:

Trip Planner

Search our weather history database for the weather conditions in past years. The results will help you decide how hot, cold, wet, or windy it might be!

Date:

Astronomy

Aug. 31, 2013 Rise Set
Actual Time 6:06 AM EDT 7:21 PM EDT
Civil Twilight 5:36 AM EDT 7:50 PM EDT
Nautical Twilight 5:00 AM EDT 8:26 PM EDT
Astronomical Twilight 4:22 AM EDT 9:04 PM EDT
Moon 1:26 AM EDT (8/31) 4:22 PM EDT (8/31)
Length of Visible Light 14h 14m
Length of Day
13h 14m
Waning Crescent, 21% of the Moon is Illuminated
Aug 31
Waning Crescent
Sep 5
New
Sep 12
First Quarter
Sep 19
Full
Sep 26
Last Quarter

Hourly Weather History & Observations

Time (EDT) Temp. Heat Index Dew Point Humidity Pressure Visibility Wind Dir Wind Speed Gust Speed Precip Events Conditions
12:54 AM 71.1 °F - 66.0 °F 84% 29.79 in 10.0 mi Calm Calm - N/A   Clear
1:54 AM 68.0 °F - 66.0 °F 93% 29.77 in 10.0 mi Calm Calm - N/A   Clear
2:54 AM 66.0 °F - 64.9 °F 96% 29.78 in 9.0 mi Calm Calm - N/A   Clear
3:54 AM 66.0 °F - 64.9 °F 96% 29.78 in 6.0 mi Calm Calm - 0.00 in Rain Light Rain
4:54 AM 66.9 °F - 64.9 °F 93% 29.79 in 5.0 mi NNE 3.5 mph - 0.02 in Rain Light Rain
5:54 AM 66.9 °F - 66.0 °F 97% 29.79 in 6.0 mi Calm Calm - 0.00 in   Mostly Cloudy
6:54 AM 66.9 °F - 66.0 °F 97% 29.80 in 6.0 mi Calm Calm - N/A   Overcast
7:28 AM 68.0 °F - 66.2 °F 94% 29.81 in 6.0 mi Calm Calm - N/A   Mostly Cloudy
7:54 AM 69.1 °F - 66.9 °F 93% 29.81 in 6.0 mi Calm Calm - N/A   Overcast
8:54 AM 71.1 °F - 66.9 °F 87% 29.82 in 10.0 mi Calm Calm - N/A   Overcast
9:11 AM 73.4 °F - 68.0 °F 83% 29.82 in 10.0 mi ENE 3.5 mph - N/A   Overcast
9:30 AM 73.4 °F - 68.0 °F 83% 29.83 in 10.0 mi Calm Calm - N/A   Mostly Cloudy
9:54 AM 77.0 °F - 69.1 °F 76% 29.83 in 10.0 mi Calm Calm - N/A   Scattered Clouds
10:54 AM 79.0 °F - 66.9 °F 66% 29.82 in 10.0 mi Calm Calm - N/A   Clear
11:54 AM 81.0 °F 83.0 °F 66.0 °F 60% 29.80 in 10.0 mi Variable 3.5 mph - N/A   Clear
12:54 PM 80.1 °F 82.1 °F 66.0 °F 62% 29.79 in 10.0 mi Calm Calm - N/A   Overcast
1:54 PM 79.0 °F - 66.9 °F 66% 29.79 in 10.0 mi South 3.5 mph - N/A   Overcast
2:54 PM 73.0 °F - 69.1 °F 87% 29.79 in 8.0 mi SW 3.5 mph - 0.01 in Rain Light Rain
3:54 PM 73.9 °F - 70.0 °F 87% 29.80 in 7.0 mi Calm Calm - 0.01 in Rain Light Rain
4:54 PM 75.0 °F - 70.0 °F 84% 29.78 in 10.0 mi Calm Calm - 0.00 in   Mostly Cloudy
5:17 PM 73.4 °F - 71.6 °F 94% 29.79 in 2.5 mi Calm Calm - 0.03 in Rain Light Rain
5:24 PM 73.4 °F - 71.6 °F 94% 29.79 in 4.0 mi Calm Calm - 0.04 in Rain Light Rain
5:33 PM 73.4 °F - 71.6 °F 94% 29.79 in 5.0 mi Calm Calm - 0.05 in Rain Light Rain
5:44 PM 73.4 °F - 71.6 °F 94% 29.79 in 10.0 mi Calm Calm - 0.05 in   Overcast
5:54 PM 73.9 °F - 71.1 °F 91% 29.78 in 10.0 mi Calm Calm - 0.05 in   Overcast
6:49 PM 73.4 °F - 71.6 °F 94% 29.79 in 8.0 mi Calm Calm - N/A   Mostly Cloudy
6:54 PM 73.0 °F - 71.1 °F 93% 29.78 in 8.0 mi Calm Calm - N/A   Overcast
7:12 PM 73.4 °F - 71.6 °F 94% 29.79 in 5.0 mi Calm Calm - N/A   Overcast
7:33 PM 73.4 °F - 71.6 °F 94% 29.79 in 5.0 mi Calm Calm - N/A Thunderstorm Overcast
7:47 PM 71.6 °F - 71.6 °F 100% 29.80 in 5.0 mi Calm Calm - 0.00 in Rain , Thunderstorm Light Rain
7:54 PM 72.0 °F - 71.1 °F 97% 29.79 in 5.0 mi SE 3.5 mph - 0.00 in Rain , Thunderstorm Light Rain
8:08 PM 71.6 °F - 71.6 °F 100% 29.80 in 6.0 mi Calm Calm - 0.00 in Rain , Thunderstorm Light Rain
8:37 PM 71.6 °F - 71.6 °F 100% 29.81 in 5.0 mi Calm Calm - 0.02 in Thunderstorm Overcast
8:54 PM 72.0 °F - 70.0 °F 93% 29.80 in 5.0 mi Calm Calm - 0.02 in   Overcast
9:03 PM 71.6 °F - 69.8 °F 94% 29.80 in 6.0 mi Calm Calm - N/A   Overcast
9:54 PM 71.1 °F - 70.0 °F 96% 29.80 in 5.0 mi Calm Calm - 0.00 in   Overcast
10:51 PM 71.6 °F - 69.8 °F 94% 29.80 in 6.0 mi Calm Calm - N/A   Mostly Cloudy
10:54 PM 71.1 °F - 70.0 °F 96% 29.79 in 6.0 mi Calm Calm - N/A   Mostly Cloudy
11:11 PM 71.6 °F - 69.8 °F 94% 29.79 in 2.5 mi Calm Calm - 0.01 in   Mostly Cloudy
11:19 PM 69.8 °F - 69.8 °F 100% 29.79 in 5.0 mi Calm Calm - 0.01 in   Mostly Cloudy
11:54 PM 70.0 °F - 69.1 °F 97% 29.79 in 4.0 mi Calm Calm - 0.01 in   Mostly Cloudy